Vorticity
nan nan nan nan nan nan nan nan nan nan nan nan nan nan nan nan nan nan nan nan nan nan nan nan nan nan nan nan nan nan nan nan nan nan nan nan nan nan nan nan nan nan nan nan nan nan nan nan nan nan nan nan nan nan
nan 11 8 7 8 11 11 11 10 7 8 8 8 8 7 7 9 19 16 8 11 8 7 11 11 12 6 5 12 5 10 12 13 16 12 12 13 8 12 12 11 10 8 8 11 19 17 7 11 11 6 8 9 nan
nan 11 10 8 7 8 10 10 12 10 7 8 9 9 8 8 9 15 14 13 12 11 12 16 16 17 16 7 3 7 10 10 9 8 12 12 10 12 17 11 7 16 10 9 10 9 4 12 16 13 11 9 11 nan
nan 9 10 10 9 6 7 8 9 11 9 8 8 9 9 9 9 12 13 11 11 10 14 14 11 13 16 22 13 0 3 10 8 11 10 10 13 9 9 12 9 14 15 10 14 8 11 9 6 14 13 12 14 nan
nan 11 8 12 12 9 7 7 7 9 10 9 8 8 9 10 13 16 15 12 9 8 11 7 14 17 16 17 18 13 2 5 10 11 11 9 13 11 8 10 19 8 7 8 7 13 10 7 10 19 16 9 13 nan
nan 14 7 11 12 12 12 8 7 7 9 9 9 9 9 10 16 21 16 12 12 9 9 9 16 14 15 20 17 15 10 5 6 11 11 10 10 12 9 8 18 8 6 15 7 3 10 15 17 20 16 15 12 nan
nan 16 11 9 12 14 11 9 8 7 8 10 9 9 11 11 12 8 10 11 13 11 11 13 11 11 12 10 13 16 12 8 10 11 10 10 11 9 10 14 6 6 12 17 14 10 10 9 10 14 17 12 12 nan
nan 17 11 11 11 9 10 12 12 10 8 9 9 10 14 17 16 15 19 13 1 9 10 13 13 15 8 6 10 11 11 12 12 7 13 11 10 9 12 11 6 12 16 9 8 13 13 13 11 8 9 11 10 nan
nan 14 8 8 9 10 11 12 12 10 9 9 14 20 21 16 15 14 15 18 8 7 14 12 13 14 9 8 11 14 10 9 10 14 12 11 8 12 10 9 10 10 11 9 8 14 19 18 18 16 11 11 13 nan
nan 9 9 9 10 12 12 10 8 10 12 20 22 17 11 9 16 14 7 6 13 11 9 8 12 10 14 10 10 9 12 13 8 12 10 13 8 12 8 10 11 11 12 17 23 18 12 12 15 19 20 20 18 nan
nan 9 10 9 8 10 13 13 9 16 22 16 11 7 10 14 11 9 11 12 10 11 13 10 10 11 16 11 7 9 15 9 10 14 9 12 14 9 11 10 11 13 14 16 18 16 17 18 16 14 15 19 16 nan
nan 10 12 9 7 8 11 12 13 14 9 12 14 12 12 13 13 13 12 12 9 14 14 12 13 10 8 12 12 13 10 9 15 11 12 11 15 14 11 9 11 12 14 14 16 16 15 16 16 14 12 12 13 nan
nan 11 12 11 9 8 8 10 12 13 13 13 12 13 13 13 11 14 11 9 15 14 12 14 10 10 11 10 13 14 12 10 11 10 7 16 17 11 10 9 11 13 13 13 13 13 13 12 13 12 11 10 11 nan
nan 11 11 16 16 13 13 12 12 14 16 12 12 10 13 12 10 11 10 8 14 15 11 11 11 9 13 13 10 11 11 13 9 14 14 15 13 11 11 12 12 12 12 11 10 10 11 10 9 10 10 12 11 nan
nan 9 14 16 15 14 14 13 13 13 12 13 12 14 10 6 14 10 13 12 9 12 13 11 10 13 13 11 9 14 11 8 11 14 18 18 15 11 12 12 11 10 11 10 10 9 8 8 9 12 12 12 12 nan
nan 12 10 9 13 9 11 14 12 11 12 12 11 9 11 14 12 11 13 11 8 12 14 12 13 15 10 12 16 8 11 13 14 14 17 14 11 10 11 12 12 11 11 10 11 11 9 8 9 10 12 8 10 nan
nan 9 9 11 11 14 15 14 13 9 11 13 11 11 10 11 10 10 12 11 11 14 12 17 11 10 14 14 8 8 16 18 16 15 14 13 11 9 10 11 11 11 11 10 10 10 12 11 8 5 7 9 10 nan
nan 8 8 11 16 17 13 12 10 12 12 11 10 11 14 13 14 13 10 12 13 12 10 13 18 12 11 15 11 14 12 12 15 15 13 13 13 11 12 11 10 10 10 10 10 9 9 9 8 9 9 10 9 nan
nan 8 8 10 14 14 15 14 10 11 12 13 12 12 13 13 12 12 14 14 13 10 14 11 13 14 11 12 14 15 14 11 9 11 14 14 12 14 12 9 12 12 11 11 8 6 8 10 12 12 10 10 11 nan
nan 17 13 11 13 13 13 10 10 12 10 13 13 11 14 14 13 11 10 11 14 12 13 14 13 10 10 13 16 16 15 14 9 6 7 9 8 8 11 13 12 11 8 8 10 11 9 8 9 10 13 15 14 nan
nan 14 15 12 11 11 11 13 12 11 11 12 13 11 13 13 12 11 11 13 12 14 13 10 11 11 13 17 18 14 12 14 13 12 15 10 10 11 11 13 11 9 9 9 10 11 10 11 11 13 13 11 11 nan
nan 11 11 11 12 13 11 11 9 14 15 13 12 14 12 11 11 12 12 12 12 11 12 13 13 14 14 13 17 18 14 13 13 13 15 15 14 11 10 13 12 9 10 12 12 12 13 11 11 13 13 11 8 nan
nan 12 11 10 11 12 14 13 11 11 13 13 12 12 10 12 14 13 11 11 10 13 15 13 13 15 15 14 11 10 14 10 10 12 9 11 13 12 10 11 13 12 11 11 12 11 11 11 11 11 11 8 10 nan
nan 10 13 14 13 12 14 11 13 12 15 11 11 10 13 14 12 12 11 11 11 14 13 15 15 11 8 8 9 8 9 14 14 14 14 12 10 10 11 11 11 13 14 12 11 12 11 10 12 10 7 9 9 nan
nan 14 13 14 15 11 9 10 15 15 12 11 12 11 13 13 12 12 13 12 14 11 10 10 12 13 13 9 9 9 13 16 13 13 14 14 13 11 9 9 10 13 12 11 11 11 11 10 9 9 10 11 11 nan
nan 14 8 14 14 13 13 13 11 13 11 12 13 12 12 13 12 12 13 13 14 13 13 12 12 12 13 13 11 12 12 12 12 10 12 12 13 13 12 12 12 11 10 13 14 12 11 11 11 11 14 17 9 nan
nan 13 14 11 13 13 9 12 15 15 15 10 11 13 11 12 13 12 13 13 12 11 11 13 13 14 13 12 13 16 16 14 13 12 11 10 11 14 16 14 14 13 14 13 12 11 10 11 9 8 9 8 9 nan
nan 12 10 15 18 14 12 10 11 14 14 14 14 11 13 14 15 12 12 15 15 12 12 14 14 13 13 13 14 14 13 13 11 9 9 10 10 12 12 11 8 8 13 10 12 10 8 8 9 11 11 10 10 nan
nan 12 9 12 13 12 11 13 16 13 13 16 16 14 13 13 15 16 16 14 13 12 13 13 12 11 10 11 13 14 13 11 10 7 7 11 13 10 9 12 11 9 9 14 8 3 9 10 11 12 14 14 13 nan
nan 12 14 9 10 12 15 15 14 13 13 19 19 16 12 11 13 16 15 13 12 12 13 12 11 10 10 10 10 8 9 9 11 13 13 13 13 14 14 12 11 12 13 13 13 22 16 10 14 12 10 10 10 nan
nan 14 12 13 13 12 14 18 15 14 15 18 17 13 11 9 11 13 14 12 11 14 13 10 10 11 10 11 12 12 9 12 13 10 12 16 15 13 14 15 14 13 11 11 12 9 11 13 11 12 11 9 13 nan
nan 18 16 13 13 14 11 11 14 16 14 10 11 11 8 8 14 16 15 15 11 10 9 13 13 10 10 9 10 10 15 20 15 15 13 12 16 15 12 11 10 9 9 9 10 10 8 9 8 9 10 10 11 nan
nan nan nan nan nan nan nan nan nan nan nan nan nan nan nan nan nan nan nan nan nan nan nan nan nan nan nan nan nan nan nan nan nan nan nan nan nan nan nan nan nan nan nan nan nan nan nan nan nan nan nan nan nan nan
CAPE
47 34 19 30 25 24 17 4 0 0 0 0 0 0 0 0 0 0 1 0 1 6 0 0 0 0 0 24 72 71 38 12 22 16 13 47 11 67 158 15 82 49 24 20 21 39 55 402 531 486 993 980 1061 1098
31 50 31 18 18 30 29 20 4 0 0 0 1 1 0 0 0 0 0 0 0 0 0 0 0 0 0 0 0 0 50 122 190 105 185 204 72 502 0 40 477 279 137 437 432 601 744 577 612 730 806 1147 1294 1215
43 46 49 33 19 34 20 22 25 1 0 0 1 2 0 0 0 0 0 0 0 0 0 0 0 0 0 0 0 2 0 77 184 126 319 430 481 384 77 26 330 440 419 314 541 355 414 386 412 571 809 1097 1221 1197
49 42 61 63 25 25 15 10 19 14 0 0 1 2 0 0 0 0 0 0 0 0 0 2 0 0 0 0 0 0 0 49 135 246 194 119 152 284 279 463 460 468 563 576 584 475 422 473 530 628 773 1062 1271 1529
42 46 37 51 63 31 24 10 4 1 1 0 1 2 0 0 0 0 0 0 0 0 10 0 0 0 0 0 0 0 0 91 373 216 203 227 245 236 280 222 248 419 412 534 850 637 794 889 720 760 826 1164 1418 2163
46 58 39 35 50 64 34 24 6 0 2 2 1 1 0 0 0 0 0 0 0 0 5 32 0 0 0 0 0 0 0 0 177 104 57 183 247 390 322 281 358 386 552 644 614 442 594 631 773 702 998 1145 977 1504
44 45 54 43 43 51 48 37 22 3 1 3 0 0 0 0 0 0 0 0 0 0 4 32 47 31 0 0 0 0 0 0 0 0 0 141 387 192 345 322 435 538 634 544 480 609 699 565 1027 1001 1161 1116 1286 857
51 45 34 30 35 13 23 23 22 13 2 0 0 0 0 0 0 0 0 0 0 0 0 5 71 252 0 49 3 0 0 0 0 1 143 268 600 478 509 647 754 769 672 580 756 700 697 707 630 812 955 1328 1585 1111
44 36 22 13 17 21 16 12 8 0 0 0 0 0 0 0 0 0 0 0 0 0 5 5 192 481 196 14 8 6 54 1 34 20 98 230 360 560 1138 1032 976 791 848 880 855 932 942 965 981 844 782 761 1360 1518
33 34 34 35 5 20 30 20 2 0 0 0 0 0 0 0 0 0 0 0 0 0 1 0 38 719 354 101 98 114 111 78 27 11 551 137 278 1551 1133 983 975 1036 965 1035 1230 1127 1291 1224 1326 1207 1162 1131 1519 1417
27 42 45 16 23 41 37 16 0 0 0 0 0 12 0 0 3 58 107 81 10 1 0 0 1 317 172 367 221 353 98 68 9 306 160 371 497 1404 1007 1104 1109 1148 1130 1128 1124 1174 1282 1386 1451 1500 1533 1586 1540 1214
29 49 72 33 14 25 35 19 1 2 0 0 0 0 0 17 71 109 111 122 30 82 35 10 34 34 95 215 860 582 216 341 294 528 486 321 1302 1106 1166 1078 1073 1048 954 1014 1115 1158 1154 1121 1032 937 858 804 595 607
39 52 47 43 30 26 30 17 2 0 0 4 10 6 68 125 59 52 41 109 148 151 273 267 235 177 153 685 915 627 606 360 661 718 276 1198 722 877 1121 1009 873 829 897 827 755 736 732 605 482 384 231 265 227 78
28 27 28 44 46 40 29 10 0 0 2 5 26 30 36 41 55 76 121 235 97 269 643 759 682 226 432 809 792 489 802 849 477 414 507 1098 624 888 951 867 799 808 729 590 441 246 105 76 12 9 3 0 0 0
33 40 51 21 21 15 7 0 0 0 6 5 9 43 23 51 23 74 59 174 293 478 566 757 773 515 581 802 741 547 648 383 431 628 990 492 674 881 833 716 666 524 273 180 127 12 1 1 0 0 0 0 1 0
42 32 35 20 29 8 0 0 1 6 9 5 5 4 15 33 83 134 337 513 419 371 503 761 660 590 511 594 435 372 260 298 816 749 464 531 665 574 488 400 263 81 0 0 0 0 0 0 0 0 0 0 0 0
51 37 19 21 3 0 0 1 7 9 7 31 46 12 8 12 6 4 185 357 250 453 701 773 285 396 634 499 425 977 805 918 379 224 488 517 695 604 453 134 1 0 0 0 0 0 0 0 0 0 0 0 0 0
44 36 8 2 1 3 2 0 7 8 13 0 10 13 11 8 3 131 183 139 314 367 469 538 619 468 485 275 873 214 153 244 35 341 394 628 629 470 146 4 0 0 0 0 0 0 0 0 0 0 0 0 0 0
12 9 0 0 2 4 1 4 5 15 8 3 13 1 4 17 94 42 22 64 7 0 113 137 319 591 106 450 246 168 90 190 221 52 164 282 158 2 0 0 0 0 0 0 0 0 0 0 0 0 0 0 0 0
0 0 0 0 0 7 11 26 0 4 52 39 44 44 14 8 90 69 1 28 71 4 41 8 7 15 65 87 582 303 45 12 17 7 5 1 0 0 0 0 0 0 0 0 0 0 0 0 0 0 0 0 0 0
0 0 0 0 2 1 4 4 7 17 95 88 38 23 12 22 39 117 96 2 25 8 15 12 10 9 10 69 171 61 37 11 1 0 0 1 1 0 0 0 0 0 0 0 0 0 0 0 0 0 0 0 0 0
19 0 11 1 5 4 5 4 29 64 109 96 73 42 43 74 25 75 28 8 11 16 9 10 5 4 0 0 0 0 0 0 0 0 0 0 0 0 0 0 0 0 0 0 0 0 0 0 0 0 0 0 0 0
0 1 8 7 11 3 9 28 89 91 62 65 52 32 4 27 78 70 6 10 18 13 7 7 4 6 0 0 0 0 0 0 0 0 0 0 0 0 0 0 0 0 0 0 0 0 0 0 0 0 0 0 0 0
0 12 25 40 17 25 50 60 53 63 49 34 12 2 0 51 29 6 4 7 5 19 6 5 9 2 1 0 0 0 0 0 0 0 0 0 0 0 0 0 0 0 0 0 0 0 0 0 0 0 0 0 0 0
16 0 0 0 30 60 25 6 7 49 27 21 6 0 20 39 2 5 6 6 3 5 0 0 0 0 0 0 0 0 0 0 0 0 0 0 0 0 0 0 0 0 0 0 0 0 0 0 0 0 0 0 0 0
6 13 6 53 55 40 11 9 26 23 6 0 0 27 28 24 9 6 3 1 1 5 0 0 0 0 0 0 0 0 0 0 0 0 0 0 0 0 0 0 0 0 0 0 0 0 0 0 0 0 0 0 0 0
13 41 58 5 65 66 32 19 14 6 4 12 36 23 27 8 9 3 2 0 0 0 0 0 0 0 0 0 0 0 0 0 0 0 0 0 0 0 0 0 0 0 0 0 0 0 0 0 0 0 0 0 0 0
32 16 1 47 67 54 23 22 12 17 9 3 24 7 12 14 4 1 0 0 0 0 0 0 0 0 0 0 0 0 0 0 0 0 0 0 0 0 0 0 0 0 0 0 0 0 0 0 0 0 0 0 0 0
38 54 84 50 47 31 18 16 13 9 6 6 2 3 10 7 1 0 0 0 0 0 0 0 0 0 0 0 0 0 0 0 0 0 0 0 0 0 0 0 0 0 0 0 0 0 0 0 0 0 0 0 0 0
54 57 43 13 18 11 7 1 9 4 1 2 1 1 0 0 0 0 0 0 0 0 0 0 0 0 0 0 0 0 0 0 0 0 0 0 0 0 0 0 0 0 0 0 0 0 0 0 0 0 0 0 0 0
6 13 6 8 7 5 5 1 0 0 0 1 8 2 0 0 0 0 0 0 0 0 0 0 0 0 0 0 0 0 0 0 0 0 0 0 0 0 0 0 0 0 0 0 0 0 0 0 0 0 0 1 2 2
14 16 10 4 9 8 6 8 12 9 7 2 0 0 0 0 0 0 0 0 0 0 0 0 0 0 0 0 0 0 0 0 0 0 0 0 0 0 0 0 0 0 0 0 0 0 0 0 1 4 9 11 15 16
20 23 20 13 5 3 14 6 1 0 0 0 0 0 0 0 0 0 0 0 0 0 0 0 0 0 0 0 0 0 0 0 0 0 0 0 0 0 0 0 0 0 0 0 0 0 2 5 12 16 15 12 12 10